Retour au catalogue

GLOBAL-33

ActifCommunicationsVLEO
NORAD 66554·PAYLOAD·🇺🇸 United States

Lancé Nov 20, 2025 depuis Rocket Lab Launch Complex 1

Loading…

Prochains Passages (prochaines 24 heures)

TLE

FraisSource: Space-Track

Époque: Sep 14, 2026, 10:06 UTC

1 66554U 25267A   26257.42133946  .00009590  00000-0  25354-3 0  9997
2 66554  42.0186 256.4445 0009740 157.9423 202.1837 15.38443981 45783

Suivez GLOBAL-33 en temps réel avec AllMySat

Download on the App Store